Year,Month,Day,Hour,Minute,Value (Times are PST for barometer in hPa)
2006,11,15,00,00,1007.11
2006,11,15,00,01,1007.03
2006,11,15,00,02,1006.93
2006,11,15,00,03,1006.83
2006,11,15,00,04,1006.63
2006,11,15,00,05,1006.50
2006,11,15,00,06,1006.48
2006,11,15,00,07,1006.64
2006,11,15,00,08,1006.67
2006,11,15,00,09,1006.74
2006,11,15,00,10,1006.71
2006,11,15,00,11,1006.73
2006,11,15,00,12,1006.64
2006,11,15,00,13,1006.60
2006,11,15,00,14,1006.67
2006,11,15,00,15,1006.67
2006,11,15,00,16,1006.64
2006,11,15,00,17,1006.57
2006,11,15,00,18,1006.60
2006,11,15,00,19,1006.60
2006,11,15,00,20,1006.56
2006,11,15,00,21,1006.49
2006,11,15,00,22,1006.36
2006,11,15,00,23,1006.19
2006,11,15,00,24,1006.05
2006,11,15,00,25,1005.97
2006,11,15,00,26,1006.06
2006,11,15,00,27,1006.07
2006,11,15,00,28,1006.16
2006,11,15,00,29,1006.13
2006,11,15,00,30,1006.10
2006,11,15,00,31,1006.03
2006,11,15,00,32,1005.96
2006,11,15,00,33,1005.98
2006,11,15,00,34,1005.89
2006,11,15,00,35,1005.93
2006,11,15,00,36,1005.96
2006,11,15,00,37,1005.98
2006,11,15,00,38,1005.89
2006,11,15,00,39,1005.86
2006,11,15,00,40,1005.89
2006,11,15,00,41,1005.86
2006,11,15,00,42,1005.83
2006,11,15,00,43,1005.78
2006,11,15,00,44,1005.69
2006,11,15,00,45,1005.62
2006,11,15,00,46,1005.55
2006,11,15,00,47,1005.62
2006,11,15,00,48,1005.54
2006,11,15,00,49,1005.39
2006,11,15,00,50,1005.32
2006,11,15,00,51,1005.39
2006,11,15,00,52,1005.35
2006,11,15,00,53,1005.32
2006,11,15,00,54,1005.27
2006,11,15,00,55,1005.15
2006,11,15,00,56,1005.08
2006,11,15,00,57,1005.04
2006,11,15,00,58,1004.88
2006,11,15,00,59,1004.89
2006,11,15,01,00,1004.95
2006,11,15,01,01,1004.91
2006,11,15,01,02,1004.88
2006,11,15,01,03,1004.88
2006,11,15,01,04,1004.91
2006,11,15,01,05,1004.95
2006,11,15,01,06,1004.88
2006,11,15,01,07,1004.84
2006,11,15,01,08,1004.91
2006,11,15,01,09,1004.88
2006,11,15,01,10,1004.81
2006,11,15,01,11,1004.78
2006,11,15,01,12,1004.73
2006,11,15,01,13,1004.60
2006,11,15,01,14,1004.46
2006,11,15,01,15,1004.33
2006,11,15,01,16,1004.27
2006,11,15,01,17,1004.27
2006,11,15,01,18,1004.22
2006,11,15,01,19,1004.13
2006,11,15,01,20,1004.17
2006,11,15,01,21,1004.23
2006,11,15,01,22,1004.27
2006,11,15,01,23,1004.27
2006,11,15,01,24,1004.30
2006,11,15,01,25,1004.27
2006,11,15,01,26,1004.26
2006,11,15,01,27,1004.17
2006,11,15,01,28,1004.20
2006,11,15,01,29,1004.20
2006,11,15,01,30,1004.13
2006,11,15,01,31,1004.06
2006,11,15,01,32,1003.99
2006,11,15,01,33,1003.90
2006,11,15,01,34,1003.90
2006,11,15,01,35,1003.85
2006,11,15,01,36,1003.78
2006,11,15,01,37,1003.69
2006,11,15,01,38,1003.69
2006,11,15,01,39,1003.69
2006,11,15,01,40,1003.76
2006,11,15,01,41,1003.68
2006,11,15,01,42,1003.58
2006,11,15,01,43,1003.52
2006,11,15,01,44,1003.51
2006,11,15,01,45,1003.35
2006,11,15,01,46,1003.32
2006,11,15,01,47,1003.35
2006,11,15,01,48,1003.35
2006,11,15,01,49,1003.39
2006,11,15,01,50,1003.32
2006,11,15,01,51,1003.35
2006,11,15,01,52,1003.35
2006,11,15,01,53,1003.33
2006,11,15,01,54,1003.46
2006,11,15,01,55,1003.39
2006,11,15,01,56,1003.38
2006,11,15,01,57,1003.25
2006,11,15,01,58,1003.31
2006,11,15,01,59,1003.17
2006,11,15,02,00,1003.08
2006,11,15,02,01,1002.98
2006,11,15,02,02,1002.95
2006,11,15,02,03,1003.01
2006,11,15,02,04,1003.01
2006,11,15,02,05,1003.04
2006,11,15,02,06,1002.95
2006,11,15,02,07,1002.95
2006,11,15,02,08,1002.98
2006,11,15,02,09,1003.00
2006,11,15,02,10,1002.91
2006,11,15,02,11,1003.01
2006,11,15,02,12,1003.08
2006,11,15,02,13,1003.08
2006,11,15,02,14,1002.98
2006,11,15,02,15,1003.01
2006,11,15,02,16,1003.01
2006,11,15,02,17,1003.04
2006,11,15,02,18,1002.94
2006,11,15,02,19,1002.88
2006,11,15,02,20,1002.91
2006,11,15,02,21,1002.98
2006,11,15,02,22,1002.91
2006,11,15,02,23,1002.88
2006,11,15,02,24,1002.81
2006,11,15,02,25,1002.78
2006,11,15,02,26,1002.78
2006,11,15,02,27,1002.88
2006,11,15,02,28,1002.88
2006,11,15,02,29,1002.81
2006,11,15,02,30,1002.81
2006,11,15,02,31,1002.85
2006,11,15,02,32,1002.85
2006,11,15,02,33,1002.81
2006,11,15,02,34,1002.73
2006,11,15,02,35,1002.64
2006,11,15,02,36,1002.60
2006,11,15,02,37,1002.44
2006,11,15,02,38,1002.47
2006,11,15,02,39,1002.41
2006,11,15,02,40,1002.37
2006,11,15,02,41,1002.34
2006,11,15,02,42,1002.34
2006,11,15,02,43,1002.34
2006,11,15,02,44,1002.37
2006,11,15,02,45,1002.37
2006,11,15,02,46,1002.29
2006,11,15,02,47,1002.20
2006,11,15,02,48,1002.17
2006,11,15,02,49,1002.10
2006,11,15,02,50,1002.07
2006,11,15,02,51,1002.00
2006,11,15,02,52,1002.07
2006,11,15,02,53,1002.00
2006,11,15,02,54,1001.93
2006,11,15,02,55,1001.90
2006,11,15,02,56,1001.86
2006,11,15,02,57,1001.80
2006,11,15,02,58,1001.76
2006,11,15,02,59,1001.76
2006,11,15,03,00,1001.73
2006,11,15,03,01,1001.72
2006,11,15,03,02,1001.64
2006,11,15,03,03,1001.79
2006,11,15,03,04,1001.68
2006,11,15,03,05,1001.56
2006,11,15,03,06,1001.49
2006,11,15,03,07,1001.49
2006,11,15,03,08,1001.51
2006,11,15,03,09,1001.36
2006,11,15,03,10,1001.36
2006,11,15,03,11,1001.32
2006,11,15,03,12,1001.22
2006,11,15,03,13,1001.22
2006,11,15,03,14,1001.22
2006,11,15,03,15,1001.18
2006,11,15,03,16,1001.08
2006,11,15,03,17,1001.05
2006,11,15,03,18,1000.97
2006,11,15,03,19,1000.85
2006,11,15,03,20,1000.91
2006,11,15,03,21,1000.78
2006,11,15,03,22,1000.71
2006,11,15,03,23,1000.75
2006,11,15,03,24,1000.78
2006,11,15,03,25,1000.78
2006,11,15,03,26,1000.71
2006,11,15,03,27,1000.68
2006,11,15,03,28,1000.71
2006,11,15,03,29,1000.71
2006,11,15,03,30,1000.64
2006,11,15,03,31,1000.60
2006,11,15,03,32,1000.51
2006,11,15,03,33,1000.48
2006,11,15,03,34,1000.51
2006,11,15,03,35,1000.44
2006,11,15,03,36,1000.41
2006,11,15,03,37,1000.34
2006,11,15,03,38,1000.34
2006,11,15,03,39,1000.37
2006,11,15,03,40,1000.37
2006,11,15,03,41,1000.26
2006,11,15,03,42,1000.13
2006,11,15,03,43,1000.03
2006,11,15,03,44,1000.06
2006,11,15,03,45,999.93
2006,11,15,03,46,999.90
2006,11,15,03,47,999.87
2006,11,15,03,48,999.90
2006,11,15,03,49,999.83
2006,11,15,03,50,999.73
2006,11,15,03,51,999.73
2006,11,15,03,52,999.66
2006,11,15,03,53,999.70
2006,11,15,03,54,999.65
2006,11,15,03,55,999.42
2006,11,15,03,56,999.32
2006,11,15,03,57,999.26
2006,11,15,03,58,999.19
2006,11,15,03,59,999.19
2006,11,15,04,00,999.26
2006,11,15,04,01,999.09
2006,11,15,04,02,999.02
2006,11,15,04,03,998.99
2006,11,15,04,04,998.99
2006,11,15,04,05,998.91
2006,11,15,04,06,998.70
2006,11,15,04,07,998.58
2006,11,15,04,08,998.61
2006,11,15,04,09,998.57
2006,11,15,04,10,998.38
2006,11,15,04,11,998.34
2006,11,15,04,12,998.44
2006,11,15,04,13,998.51
2006,11,15,04,14,998.44
2006,11,15,04,15,998.38
2006,11,15,04,16,998.34
2006,11,15,04,17,998.30
2006,11,15,04,18,998.16
2006,11,15,04,19,997.97
2006,11,15,04,20,997.87
2006,11,15,04,21,997.86
2006,11,15,04,22,997.73
2006,11,15,04,23,997.60
2006,11,15,04,24,997.29
2006,11,15,04,25,997.28
2006,11,15,04,26,997.15
2006,11,15,04,27,996.91
2006,11,15,04,28,996.82
2006,11,15,04,29,996.82
2006,11,15,04,30,996.75
2006,11,15,04,31,996.75
2006,11,15,04,32,996.55
2006,11,15,04,33,996.48
2006,11,15,04,34,996.55
2006,11,15,04,35,996.55
2006,11,15,04,36,996.58
2006,11,15,04,37,996.57
2006,11,15,04,38,996.38
2006,11,15,04,39,996.34
2006,11,15,04,40,996.38
2006,11,15,04,41,996.39
2006,11,15,04,42,996.48
2006,11,15,04,43,996.55
2006,11,15,04,44,996.55
2006,11,15,04,45,996.58
2006,11,15,04,46,996.51
2006,11,15,04,47,996.45
2006,11,15,04,48,996.41
2006,11,15,04,49,996.51
2006,11,15,04,50,996.51
2006,11,15,04,51,996.58
2006,11,15,04,52,996.47
2006,11,15,04,53,996.38
2006,11,15,04,54,996.21
2006,11,15,04,55,996.01
2006,11,15,04,56,996.07
2006,11,15,04,57,996.04
2006,11,15,04,58,996.04
2006,11,15,04,59,996.02
2006,11,15,05,00,996.11
2006,11,15,05,01,996.11
2006,11,15,05,02,996.16
2006,11,15,05,03,995.97
2006,11,15,05,04,995.97
2006,11,15,05,05,995.96
2006,11,15,05,06,995.79
2006,11,15,05,07,995.70
2006,11,15,05,08,995.67
2006,11,15,05,09,995.56
2006,11,15,05,10,995.62
2006,11,15,05,11,995.46
2006,11,15,05,12,995.40
2006,11,15,05,13,995.12
2006,11,15,05,14,995.18
2006,11,15,05,15,995.08
2006,11,15,05,16,994.90
2006,11,15,05,17,995.02
2006,11,15,05,18,994.99
2006,11,15,05,19,994.92
2006,11,15,05,20,994.85
2006,11,15,05,21,994.79
2006,11,15,05,22,994.72
2006,11,15,05,23,994.74
2006,11,15,05,24,994.62
2006,11,15,05,25,994.55
2006,11,15,05,26,994.48
2006,11,15,05,27,994.41
2006,11,15,05,28,994.35
2006,11,15,05,29,994.44
2006,11,15,05,30,994.21
2006,11,15,05,31,994.28
2006,11,15,05,32,994.21
2006,11,15,05,33,994.28
2006,11,15,05,34,994.18
2006,11,15,05,35,994.18
2006,11,15,05,36,994.14
2006,11,15,05,37,994.10
2006,11,15,05,38,994.00
2006,11,15,05,39,993.87
2006,11,15,05,40,993.84
2006,11,15,05,41,993.88
2006,11,15,05,42,993.96
2006,11,15,05,43,993.70
2006,11,15,05,44,993.62
2006,11,15,05,45,993.40
2006,11,15,05,46,993.36
2006,11,15,05,47,993.40
2006,11,15,05,48,993.43
2006,11,15,05,49,993.17
2006,11,15,05,50,993.30
2006,11,15,05,51,993.24
2006,11,15,05,52,992.92
2006,11,15,05,53,993.09
2006,11,15,05,54,993.13
2006,11,15,05,55,993.13
2006,11,15,05,56,993.13
2006,11,15,05,57,993.16
2006,11,15,05,58,993.09
2006,11,15,05,59,992.99
2006,11,15,06,00,992.96
2006,11,15,06,01,992.96
2006,11,15,06,02,992.96
2006,11,15,06,03,992.75
2006,11,15,06,04,992.69
2006,11,15,06,05,992.69
2006,11,15,06,06,992.62
2006,11,15,06,07,992.69
2006,11,15,06,08,992.49
2006,11,15,06,09,992.62
2006,11,15,06,10,992.58
2006,11,15,06,11,992.58
2006,11,15,06,12,992.64
2006,11,15,06,13,992.48
2006,11,15,06,14,992.55
2006,11,15,06,15,992.55
2006,11,15,06,16,992.52
2006,11,15,06,17,992.52
2006,11,15,06,18,992.52
2006,11,15,06,19,992.21
2006,11,15,06,20,992.01
2006,11,15,06,21,992.01
2006,11,15,06,22,991.98
2006,11,15,06,23,991.87
2006,11,15,06,24,991.91
2006,11,15,06,25,992.01
2006,11,15,06,26,991.84
2006,11,15,06,27,991.91
2006,11,15,06,28,991.93
2006,11,15,06,29,991.77
2006,11,15,06,30,991.73
2006,11,15,06,31,991.53
2006,11,15,06,32,991.50
2006,11,15,06,33,991.58
2006,11,15,06,34,991.67
2006,11,15,06,35,991.59
2006,11,15,06,36,991.50
2006,11,15,06,37,991.57
2006,11,15,06,38,991.50
2006,11,15,06,39,991.43
2006,11,15,06,40,991.46
2006,11,15,06,41,991.34
2006,11,15,06,42,991.43
2006,11,15,06,43,991.36
2006,11,15,06,44,991.26
2006,11,15,06,45,991.23
2006,11,15,06,46,991.23
2006,11,15,06,47,991.22
2006,11,15,06,48,990.94
2006,11,15,06,49,991.08
2006,11,15,06,50,990.89
2006,11,15,06,51,990.93
2006,11,15,06,52,990.86
2006,11,15,06,53,990.86
2006,11,15,06,54,990.79
2006,11,15,06,55,990.89
2006,11,15,06,56,990.79
2006,11,15,06,57,990.88
2006,11,15,06,58,990.62
2006,11,15,06,59,990.64
2006,11,15,07,00,990.52
2006,11,15,07,01,990.59
2006,11,15,07,02,990.55
2006,11,15,07,03,990.33
2006,11,15,07,04,990.51
2006,11,15,07,05,990.35
2006,11,15,07,06,990.25
2006,11,15,07,07,990.18
2006,11,15,07,08,990.25
2006,11,15,07,09,990.24
2006,11,15,07,10,990.04
2006,11,15,07,11,990.03
2006,11,15,07,12,989.90
2006,11,15,07,13,989.67
2006,11,15,07,14,989.74
2006,11,15,07,15,989.74
2006,11,15,07,16,989.84
2006,11,15,07,17,989.87
2006,11,15,07,18,989.74
2006,11,15,07,19,989.74
2006,11,15,07,20,989.91
2006,11,15,07,21,989.94
2006,11,15,07,22,989.97
2006,11,15,07,23,989.74
2006,11,15,07,24,989.80
2006,11,15,07,25,989.58
2006,11,15,07,26,989.74
2006,11,15,07,27,989.81
2006,11,15,07,28,989.67
2006,11,15,07,29,989.68
2006,11,15,07,30,989.90
2006,11,15,07,31,989.74
2006,11,15,07,32,989.63
2006,11,15,07,33,989.49
2006,11,15,07,34,989.37
2006,11,15,07,35,989.47
2006,11,15,07,36,989.49
2006,11,15,07,37,989.40
2006,11,15,07,38,989.50
2006,11,15,07,39,989.57
2006,11,15,07,40,989.50
2006,11,15,07,41,989.57
2006,11,15,07,42,989.43
2006,11,15,07,43,989.29
2006,11,15,07,44,989.20
2006,11,15,07,45,989.10
2006,11,15,07,46,989.03
2006,11,15,07,47,988.95
2006,11,15,07,48,988.76
2006,11,15,07,49,988.75
2006,11,15,07,50,988.63
2006,11,15,07,51,988.77
2006,11,15,07,52,988.88
2006,11,15,07,53,988.76
2006,11,15,07,54,988.56
2006,11,15,07,55,988.68
2006,11,15,07,56,988.48
2006,11,15,07,57,988.39
2006,11,15,07,58,988.22
2006,11,15,07,59,988.17
2006,11,15,08,00,988.08
2006,11,15,08,01,987.91
2006,11,15,08,02,987.83
2006,11,15,08,03,987.67
2006,11,15,08,04,987.71
2006,11,15,08,05,987.77
2006,11,15,08,06,987.67
2006,11,15,08,07,987.78
2006,11,15,08,08,987.82
2006,11,15,08,09,987.95
2006,11,15,08,10,987.64
2006,11,15,08,11,987.64
2006,11,15,08,12,987.64
2006,11,15,08,13,987.88
2006,11,15,08,14,987.97
2006,11,15,08,15,987.78
2006,11,15,08,16,987.61
2006,11,15,08,17,987.61
2006,11,15,08,18,987.57
2006,11,15,08,19,987.34
2006,11,15,08,20,987.56
2006,11,15,08,21,987.37
2006,11,15,08,22,987.52
2006,11,15,08,23,987.12
2006,11,15,08,24,987.00
2006,11,15,08,25,987.03
2006,11,15,08,26,986.94
2006,11,15,08,27,987.09
2006,11,15,08,28,987.00
2006,11,15,08,29,986.99
2006,11,15,08,30,986.83
2006,11,15,08,31,986.85
2006,11,15,08,32,986.76
2006,11,15,08,33,986.66
2006,11,15,08,34,986.62
2006,11,15,08,35,986.59
2006,11,15,08,36,986.56
2006,11,15,08,37,986.49
2006,11,15,08,38,986.15
2006,11,15,08,39,986.23
2006,11,15,08,40,986.35
2006,11,15,08,41,985.88
2006,11,15,08,42,986.12
2006,11,15,08,43,986.32
2006,11,15,08,44,986.30
2006,11,15,08,45,986.42
2006,11,15,08,46,986.52
2006,11,15,08,47,986.41
2006,11,15,08,48,986.29
2006,11,15,08,49,986.35
2006,11,15,08,50,986.17
2006,11,15,08,51,986.02
2006,11,15,08,52,985.95
2006,11,15,08,53,985.99
2006,11,15,08,54,986.14
2006,11,15,08,55,986.03
2006,11,15,08,56,986.12
2006,11,15,08,57,986.08
2006,11,15,08,58,986.08
2006,11,15,08,59,984.89
2006,11,15,09,00,985.37
2006,11,15,09,01,985.24
2006,11,15,09,02,985.54
2006,11,15,09,03,985.47
2006,11,15,09,04,985.47
2006,11,15,09,05,985.26
2006,11,15,09,06,985.07
2006,11,15,09,07,984.76
2006,11,15,09,08,984.87
2006,11,15,09,09,985.13
2006,11,15,09,10,984.87
2006,11,15,09,11,984.99
2006,11,15,09,12,984.90
2006,11,15,09,13,984.97
2006,11,15,09,14,985.17
2006,11,15,09,15,984.73
2006,11,15,09,16,984.76
2006,11,15,09,17,985.04
2006,11,15,09,18,985.35
2006,11,15,09,19,985.51
2006,11,15,09,20,985.47
2006,11,15,09,21,985.43
2006,11,15,09,22,984.67
2006,11,15,09,23,984.86
2006,11,15,09,24,984.80
2006,11,15,09,25,984.80
2006,11,15,09,26,984.77
2006,11,15,09,27,984.86
2006,11,15,09,28,984.90
2006,11,15,09,29,984.77
2006,11,15,09,30,984.90
2006,11,15,09,31,984.80
2006,11,15,09,32,984.59
2006,11,15,09,33,984.59
2006,11,15,09,34,984.49
2006,11,15,09,35,984.41
2006,11,15,09,36,984.29
2006,11,15,09,37,984.39
2006,11,15,09,38,984.66
2006,11,15,09,39,984.74
2006,11,15,09,40,984.90
2006,11,15,09,41,984.85
2006,11,15,09,42,984.62
2006,11,15,09,43,984.49
2006,11,15,09,44,984.08
2006,11,15,09,45,984.05
2006,11,15,09,46,984.46
2006,11,15,09,47,984.25
2006,11,15,09,48,983.94
2006,11,15,09,49,983.75
2006,11,15,09,50,983.54
2006,11,15,09,51,983.48
2006,11,15,09,52,983.63
2006,11,15,09,53,983.37
2006,11,15,09,54,983.31
2006,11,15,09,55,983.31
2006,11,15,09,56,983.25
2006,11,15,09,57,983.44
2006,11,15,09,58,983.23
2006,11,15,09,59,983.10
2006,11,15,10,00,983.00
2006,11,15,10,01,983.48
2006,11,15,10,02,983.41
2006,11,15,10,03,983.61
2006,11,15,10,04,983.59
2006,11,15,10,05,983.78
2006,11,15,10,06,983.58
2006,11,15,10,07,983.61
2006,11,15,10,08,983.51
2006,11,15,10,09,983.33
2006,11,15,10,10,983.15
2006,11,15,10,11,982.82
2006,11,15,10,12,982.61
2006,11,15,10,13,983.00
2006,11,15,10,14,983.07
2006,11,15,10,15,983.54
2006,11,15,10,16,983.10
2006,11,15,10,17,983.07
2006,11,15,10,18,982.73
2006,11,15,10,19,982.93
2006,11,15,10,20,982.93
2006,11,15,10,21,982.97
2006,11,15,10,22,983.14
2006,11,15,10,23,983.10
2006,11,15,10,24,983.02
2006,11,15,10,25,982.70
2006,11,15,10,26,982.87
2006,11,15,10,27,982.76
2006,11,15,10,28,982.99
2006,11,15,10,29,982.90
2006,11,15,10,30,983.10
2006,11,15,10,31,982.90
2006,11,15,10,32,982.84
2006,11,15,10,33,983.10
2006,11,15,10,34,982.92
2006,11,15,10,35,983.27
2006,11,15,10,36,983.00
2006,11,15,10,37,982.96
2006,11,15,10,38,982.76
2006,11,15,10,39,983.14
2006,11,15,10,40,983.20
2006,11,15,10,41,983.10
2006,11,15,10,42,983.07
2006,11,15,10,43,982.97
2006,11,15,10,44,982.97
2006,11,15,10,45,982.93
2006,11,15,10,46,983.26
2006,11,15,10,47,983.07
2006,11,15,10,48,982.89
2006,11,15,10,49,982.76
2006,11,15,10,50,982.59
2006,11,15,10,51,982.87
2006,11,15,10,52,982.80
2006,11,15,10,53,982.80
